Flag Weather past 2 weeks in Geneva, Geneva, Switzerland

Now
50 °F

Cool.


Feels Like: 48 °F
Forecast: 41 / 58 °F
Wind: 6 mph from Northeast

Location: Geneve-Cointrin

Current Time: Nov 27, 2014 at 10:21:19 PM

Latest Report: Nov 27, 2014 at 9:00 PM


Visibility: N/A

Pressure: 29.76 "Hg

Humidity: 83%

Dew point: 45 °F

Location of GenevaLocation

Historic Weather in Geneva — Graph

°F

Geneva temperature yesterday

Maximum temperature yesterday: 52 °F (at 3:00 PM)
Minimum temperature yesterday: 49 °F (at 2:00 AM)
Average temperature yesterday: 50 °F

Past Weeks' High & Low Weather Summary

 TemperatureHumidityPressure
High54 °F (Nov 13, 2:00 PM)96% (Nov 24, 3:00 AM)30.30 "Hg (Nov 24, 3:00 AM)
Low35 °F (Nov 20, 1:00 AM)58% (Nov 16, 3:00 PM)29.62 "Hg (Nov 15, 3:00 PM)
Average46 °F88%29.99 "Hg
* Reported Nov 12 9:00 PM — Nov 27 9:00 PM, Geneva, Weather by CustomWeather, © 2014

Note: Actual official high and low records may vary slightly from our data, if they occured in-between our weather recording intervals... More about our weather records

Advertising

Geneva weather history for previous 24 hours

 ConditionsComfort  
Time TempWeatherWind HumidityBarometerVisibility
9:00 PM
Nov 27
50 °FCool.6 mph83%29.76 "HgN/A
8:00 PM50 °FCool.3 mph82%29.76 "HgN/A
7:00 PM51 °FFog.5 mph82%29.75 "Hg6 mi
6:00 PM51 °FCool.5 mph82%29.74 "HgN/A
5:00 PM51 °FCool.3 mph82%29.73 "HgN/A
4:00 PM51 °FFog.2 mph82%29.74 "Hg6 mi
3:00 PM51 °FCool.5 mph81%29.75 "HgN/A
2:00 PM52 °FCool.5 mph83%29.76 "HgN/A
1:00 PM52 °FFog.3 mph83%29.77 "Hg6 mi
12:00 PM51 °FCool.5 mph86%29.80 "HgN/A
11:00 AM51 °FCool.2 mph86%29.80 "HgN/A
10:00 AM50 °FFog.2 mph88%29.80 "Hg3 mi
9:00 AM50 °FCool.3 mph91%29.80 "HgN/A
8:00 AM49 °FCool.1 mph91%29.80 "HgN/A
7:00 AM49 °FLight rain. Low clouds.3 mph92%29.80 "Hg2 mi
6:00 AM49 °FCool.2 mph92%29.81 "HgN/A
5:00 AM49 °FCool.2 mph92%29.82 "HgN/A
4:00 AM50 °FLight rain. Low clouds.6 mph91%29.82 "Hg5 mi
3:00 AM50 °FCool.1 mph89%29.84 "HgN/A
2:00 AM50 °FCool.1 mph89%29.85 "HgN/A
1:00 AM51 °FFog.2 mph89%29.86 "Hg6 mi
12:00 AM51 °FCool.2 mph89%29.88 "HgN/A
11:00 PM
Nov 26
51 °FCool.3 mph86%29.89 "HgN/A
10:00 PM51 °FFog.2 mph88%29.90 "Hg6 mi
Weather by CustomWeather, © 2014

See weather overviewHow to use our weather pages